📊 Raw Sensor Data

Showing records 32926 to 32950 of 84,743 total

ID Distance (ft) Battery V Battery A Int Temp (°F) Int Humid (%) Ext Temp (°F) Solar V RSSI SNR Time Stamp
51830 14.6 3.96 -5 63 46 64 0.00 -72 8 09/12/2025 10:45 PM
51829 14.6 3.96 -5 64 46 65 0.00 -76 8 09/12/2025 10:30 PM
51828 14.6 3.97 -5 64 46 65 0.00 -73 8 09/12/2025 10:15 PM
51827 14.6 4.02 -5 65 46 65 0.00 -71 8 09/12/2025 10:00 PM
51826 14.6 4.02 -5 66 47 66 0.00 -72 8 09/12/2025 09:45 PM
51825 14.6 3.97 -5 66 47 66 0.00 -71 8 09/12/2025 09:30 PM
51824 14.6 3.97 -5 67 47 67 0.00 -71 7 09/12/2025 09:15 PM
51823 14.6 4.03 -5 67 48 68 0.00 -73 8 09/12/2025 09:00 PM
51822 14.6 3.97 -5 68 48 68 0.10 -72 8 09/12/2025 08:45 PM
51821 14.6 3.97 -5 69 49 69 0.10 -71 8 09/12/2025 08:30 PM
51820 14.7 3.97 -5 70 50 69 0.00 -72 8 09/12/2025 08:15 PM
51819 14.7 3.97 -5 71 51 71 0.00 -72 8 09/12/2025 08:00 PM
51818 14.6 3.97 -5 73 52 72 0.00 -74 8 09/12/2025 07:45 PM
51817 14.7 3.98 -5 75 53 73 0.90 -73 8 09/12/2025 07:30 PM
51816 14.6 3.97 -24 78 54 74 2.20 -71 7 09/12/2025 07:15 PM
51815 14.7 4.04 0 84 52 78 4.60 -72 8 09/12/2025 07:00 PM
51814 14.7 4.07 -6 87 51 80 4.50 -73 8 09/12/2025 06:45 PM
51813 14.7 4.05 7 90 50 83 4.50 -73 8 09/12/2025 06:30 PM
51812 14.7 4.15 37 92 49 84 4.50 -73 8 09/12/2025 06:15 PM
51811 14.7 4.02 0 94 49 85 5.10 -72 8 09/12/2025 06:00 PM
51810 14.8 4.02 5 96 48 85 5.10 -74 8 09/12/2025 05:45 PM
51809 14.9 4.07 5 97 47 86 5.10 -73 8 09/12/2025 05:30 PM
51808 14.8 4.01 0 98 47 87 5.10 -74 8 09/12/2025 05:15 PM
51807 14.9 4.01 0 98 47 88 5.10 -74 7 09/12/2025 05:00 PM
51806 14.9 4.01 5 99 46 88 5.10 -74 8 09/12/2025 04:45 PM